General Aviation Weather

Text Reports

Enter one or more of the following location identifiers separated by a space:

Zip Code, Four-Character ICAO or Three-Character IATA airport codes.

METAR - Aviation Routine Weather Report
KT35 - Cameron, Texas
Updated at 7:15 AM GMT on August 01, 2014 (2:15 AM CDT):
METAR KT35 010715Z AUTO 33004KT 10SM BKN025 BKN060 OVC070 23/19 A2999 RMK AO2 LTG DSNT SE T02270193
TAF - Terminal Area Forecast
KT35 - Cameron, Texas
Updated at 7:15 AM GMT on August 01, 2014 (2:15 AM CDT):
No TAF is currently available for this location.
Decoded:
No decoded TAF is available.
PIREP - Pilot Weather Report
KT35 - Cameron, Texas
Updated at 7:15 AM GMT on August 01, 2014 (2:15 AM CDT):
No PIREP is currently available for this location.
AIRMET - Airmens Meteorological Information
KT35 - Cameron, Texas
Updated at 7:15 AM GMT on August 01, 2014 (2:15 AM CDT):
No AIRMET is currently available for this location.
SIGMET - Significant Meteorological Information
KT35 - Cameron, Texas
Updated at 7:15 AM GMT on August 01, 2014 (2:15 AM CDT):
No SIGMET is currently available for this location.
NOTAM - Notice to Airmen
KT35 - Cameron, Texas
Updated at 7:15 AM GMT on August 01, 2014 (2:15 AM CDT):
No NOTAM is currently available for this location.
Forecast Area
KT35 - Cameron, Texas
Updated at 7:15 AM GMT on August 01, 2014 (2:15 AM CDT):
No NOTAM is currently available for this location.
Aviation Weather Maps